Regional Weather Roundup
Issued by NWS Charleston, SC

Current Version | Previous Version | Graphics & Text | Print | Product List | Glossary On
Versions: 1 2 3 4 5 6 7 8 9 10 11 12 13 14 15 16 17 18 19 20 21 22 23 24 25 26 27 28 29 30 31 32 33 34 35 36 37 38 39 40 41 42 43 44 45 46 47 48 49 50
000
ASUS42 KCHS 220125
RWRCHS

REGIONAL WEATHER ROUNDUP
NATIONAL WEATHER SERVICE CHARLESTON SC
800 PM EST FRI NOV 21 2014

NOTE: "FAIR" INDICATES FEW OR NO CLOUDS BELOW 12,000 FEET WITH NO
SIGNIFICANT WEATHER AND/OR OBSTRUCTIONS TO VISIBILITY.

NOT ALL STATIONS ARE QUALITY CONTROLLED BY THE NATIONAL
WEATHER SERVICE. USE DATA WITH CAUTION...ESPECIALLY
DEWPOINT OBSERVATIONS.

SCZ027-030-031-034>040-042>050-220200-
...SOUTH CAROLINA...

CITY           SKY/WX    TMP DP  RH WIND       PRES   REMARKS
N CHARLESTON   CLEAR     48  37  65 NE6       30.44R
WATERFRONT PRK   N/A     54 N/A N/A NE7         N/A
FORT JOHNSON   NOT AVBL
JOHNS ISLAND   CLEAR     50  43  76 CALM      30.44R
PINOPOLIS        N/A     52  37  58 E6        30.35R
MONCKS CORNER  FAIR      48  41  76 NE3       30.45R
SUMMERVILLE    FAIR      45  39  81 CALM      30.46R
BEAUFORT MCAS  CLEAR     52  44  74 E5        30.42R
BEAUFORT ARPT  FAIR      50  46  87 NE3       30.42R
HILTON HEAD IS CLEAR     55  50  82 N7        30.43R
GEORGETOWN     NOT AVBL
WALTERBORO     CLEAR     48  36  61 E6        30.45R
ORANGEBURG     CLEAR     51  26  37 E5        30.44R
BARNWELL       FAIR      45  32  61 NE6       30.43R
AIKEN          FAIR      41  32  70 E7        30.45S
MANNING        NOT AVBL
KINGSTREE      NOT AVBL
COLUMBIA       CLEAR     53  25  33 E8        30.45R
SUMTER         CLEAR     40  23  51 NE6       30.45R WCI  35
FLORENCE       CLEAR     40  22  48 E7        30.48R WCI  35
MYRTLE BEACH   CLEAR     48  21  34 NE10      30.48R
N MYRTLE BEACH CLEAR     40  27  59 NE7       30.48R WCI  35

$$

GAZ063-065-086>088-099>101-113>116-118-119-134-136>141-150-220200-
...GEORGIA...

CITY           SKY/WX    TMP DP  RH WIND       PRES   REMARKS
SAVANNAH ARPT  CLEAR     54  43  66 E7        30.41R
HUNTER AAF     CLEAR     51  45  79 E1        30.39R
FORT STEWART   CLEAR     45  38  78 CALM      30.39R
STATESBORO     NOT AVBL
SYLVANIA       CLEAR     52  38  59 SE3       30.42R
CLAXTON        FAIR      45  36  70 CALM      30.41R
THOMSON        CLEAR     41  38  88 E3        30.46R
AUGUSTA-BUSH   CLEAR     43  29  57 CALM      30.42R
AUGUSTA-DANIEL CLEAR     54  29  38 E7        30.41R
SWAINSBORO     FAIR      54  36  50 E5        30.40R
VIDALIA        CLEAR     50  36  57 E5        30.39R
ALMA           CLEAR     51  34  52 E5        30.37R
WAYCROSS       CLEAR     55  40  56 E6        30.37S
JESUP          FAIR      50  41  71 CALM      30.39S
BRUNSWICK        N/A     50  45  81 CALM      30.39S
SAINT SIMONS   CLEAR     55  46  71 NE7       30.38S

$$

SCZ027-028-034-036>038-045-046-048>050-GAZ119-141-220200-
...LAKE AND SUPPLEMENTAL COASTAL OBSERVATIONS...

STATION/POSITION TIME  TEMP    WIND        PRES    WAVE   SWELL
                       AIR SEA DIR/SP/G            HT/PER HT/PER/DIR
                 (UTC) (F)     (DEG/KT/KT) (MB)    (FT/S) (FT/S/D)
UPR LAKE MARION  NOT AVBL
WINYAH BAY       0100   52      30/  5     1031.0S
LAKE MURRAY      0100   53      70/  6/ 11 1030.1S
ACE BASIN NERRS  0100   50      40/  2     1030.0S
FORT PULASKI     0100   60      70/ 13/ 15 1029.8R
SAPELO ISLAND    NOT AVBL

$$

ANZ835-935-AMZ111-154-330-350-352-354-374-450-454-472-220200-
...C-MAN AND BUOY OBSERVATIONS...

STATION/POSITION TIME  TEMP    WIND        PRES    WAVE   SWELL
                       AIR SEA DIR/SP/G            HT/PER HT/PER/DIR
                 (UTC) (F)     (DEG/KT/KT) (MB)    (FT/S) (FT/S/D)
FOLLY BEACH CMAN 0100   57      60/ 17/ 19 1030.9R
BUOY 41004       0100   61 75   50/ 17/ 21 1029.6R   4/ 5   2/ 9
BUOY 41008       0100   64 64   70/ 16/ 19 1028.4R   3/ 5   2/120/ 8
5E ST. MARYS GA  0100      63                N/A     3/ 4
FRYING PAN BUOY  0100   54 64   30/ 16/ 17 1032.1R   3/ 6   2/130/ 9
BUOY 41025       0100   45     350/ 16/ 19 1033.2R   5/ 6   2/ 20/ 8
CAPE LOOKOUT NC  0100   43      20/ 11/ 13 1033.4R
BUOY 41002       0013   62 73   10/ 16/ 17 1029.6R   5/ 7
BUOY 41010       0100   74 78   60/ 19/ 23 1025.3S   6/ 5   2/ 80/ 9
BUOY 41012       NOT AVBL
ST AUGUSTINE FL  0100   66      40/ 15/ 16 1027.1F
CAPERS NEARSHORE 0000   57      70/ 17/ 21   N/A
FRIPP NEARSHORE  NOT AVBL


$$


USA.gov is the U.S. government's official web portal to all federal, state and local government web resources and services.